Regional Weather Roundup
Issued by NWS

Home | Current Version | Previous Version | Graphics & Text | Print | Product List | Glossary On
Versions: 1 2 3 4 5 6 7 8 9 10 11 12 13 14 15 16 17 18 19 20 21 22 23 24 25 26 27 28 29 30 31 32 33 34 35 36 37 38 39 40 41 42 43 44 45 46 47 48 49 50
000
ASUS45 KBOU 232207
RWRCO

WEATHER ROUNDUP FOR COLORADO
NATIONAL WEATHER SERVICE DENVER/BOULDER CO
400 PM MDT SAT MAY 23 2015

NOTE: "FAIR" INDICATES FEW OR NO CLOUDS BELOW 12000 FEET WITH NO
SIGNIFICANT WEATHER AND/OR OBSTRUCTIONS TO VISIBILITY.

COZ001>005-013-030-031-232300-
...NORTHWEST COLORADO...

CITY           SKY/WX    TMP DP  RH WIND       PRES   REMARKS
CRAIG          CLOUDY    57  34  41 NW9       29.96F
HAYDEN         CLOUDY    52  30  43 NE10      29.97F
MEEKER         CLOUDY    53  37  54 MISG      29.95S
MOUNT WERNER   NOT AVBL
STEAMBOAT SPGS CLOUDY    41  37  87 N7        30.00F
WALDEN         CLOUDY    43  32  65 SW24      29.98F
$$

COZ006>008-011-232300-
...WEST CENTRAL VALLEYS...

CITY           SKY/WX    TMP DP  RH WIND       PRES   REMARKS
GRAND JUNCTION PTSUNNY   56  40  55 NW16      29.96F
MONTROSE       CLOUDY    54  34  46 SE6       29.99F
EAGLE          MOSUNNY   61  30  31 W21G28    29.93F
RIFLE          CLOUDY    58  34  40 W13G20    29.95S
DELTA          PTSUNNY   58  37  44 MISG      29.98F
NUCLA          PTSUNNY   54  36  50 SW9       30.03S
$$

COZ017>023-064>068-232300-
...SOUTHWEST COLORADO...

CITY           SKY/WX    TMP DP  RH WIND       PRES   REMARKS
DURANGO        PTSUNNY   56  27  32 W15       30.01F
CORTEZ         PTSUNNY   54  34  46 SW8       30.02F
PAGOSA SPRINGS CLOUDY    54  15  21 S16G22    30.03F
TELLURIDE      PTSUNNY   41  33  72 SW5       30.09F
WOLF CREEK PAS NOT AVBL
$$

COZ009-010-012-014-032>034-037-058>063-232300-
...CENTRAL COLORADO...

CITY           SKY/WX    TMP DP  RH WIND       PRES   REMARKS
ASPEN          CLOUDY    51  30  44 N16G26    29.95R
BUENA VISTA    PTSUNNY   56  26  30 SE13G21   29.95S
COPPER MTN     CLOUDY    34  28  80 S9G17     30.12S WCI  26
BERTHOUD PASS  PTSUNNY   30  23  74 MISG      30.14S
COTTONWOOD PAS PTSUNNY   46  23  39 W5        30.03R
GUNNISON       PTSUNNY   52  28  40 W16G29    30.00F
KREMMLING      PTSUNNY   55  32  41 N5        29.95F
LEADVILLE      CLOUDY    39  23  52 S6        30.03F
SALIDA         PTSUNNY   58  21  23 S16G24    29.99F
SUNLIGHT       HVY SNOW  32  32 100 CALM      30.13R VSB<1/4
WILKERSON PASS MOSUNNY   37  32  81 SW5       30.12F
$$

COZ069>075-232300-
...SAN LUIS VALLEY/SANGRE DE CRISTO MOUNTAINS...

CITY           SKY/WX    TMP DP  RH WIND       PRES   REMARKS
ALAMOSA        MOSUNNY   61  21  21 W31G37    29.96F
LA VETA PASS   MOSUNNY  N/A N/A N/A MISG      30.06F
SAGUACHE       MOSUNNY   57  23  26 SW16G26   29.97F
$$

COZ035-036-038>040-232300-
...NORTHERN COLORADO FRONT RANGE...

CITY           SKY/WX    TMP DP  RH WIND       PRES   REMARKS
DENVER INTL AP PTSUNNY   56  45  66 N15       29.92F
DMNS CITY PARK   N/A     53  46  78 S2G9      29.94R
AURORA         LGT RAIN  49  43  81 SW15G24   29.96R
FRONT RANGE AP PTSUNNY   57  46  67 NW12      29.93S
ERIE MUNI ARPT CLOUDY    56  47  72 E5        29.92R
BOULDER MUN AP CLOUDY    54  46  76 NW6       29.91S
CENTENNIAL     RAIN      47  43  86 SW12      29.96R
BROOMFIELD     PTSUNNY   54  46  76 N5        29.93F
FORT COLLINS   CLOUDY    52  48  87 NE13      29.93F
LONGMONT       CLOUDY    59  48  66 N9        29.93S
$$

COZ041-046-047-076>085-087-088-232300-
...PIKES PEAK/PALMER DIVIDE AND SOUTHERN FOOTHILLS...

CITY           SKY/WX    TMP DP  RH WIND       PRES   REMARKS
COLO. SPRINGS  PTSUNNY   54  42  64 N9        29.93F
A. F. ACADEMY  PTSUNNY   49  43  79 N12       29.93F
ELLICOTT       NOT AVBL
FALCON         LGT RAIN  49  40  72 N14G24    29.96F
FORT CARSON    LGT RAIN  56  46  69 N12       29.91F
LIMON          RAIN      48  43  82 SE15      29.97F
MONUMENT HILL  NOT AVBL
TRINIDAD       LGT RAIN  70  36  28 S17       29.84F
$$

COZ042>045-048>051-090-091-232300-
...NORTHEAST COLORADO...

CITY           SKY/WX    TMP DP  RH WIND       PRES   REMARKS
GREELEY ARPT   CLOUDY    48  46  93 NW3       29.97R
AKRON          CLOUDY    62  52  69 SE22G29   29.90S
BURLINGTON     CLOUDY    66  52  60 SE16      29.90F
WRAY           CLOUDY    66  53  63 E15G22    29.91F
STERLING       CLOUDY    54  52  94 CALM      29.88R
HOLYOKE        NOT AVBL
FORT MORGAN    CLOUDY    50  47  88 W10       29.92R
$$

COZ086-089-092>099-232300-
...SOUTHEAST COLORADO...

CITY           SKY/WX    TMP DP  RH WIND       PRES   REMARKS
PUEBLO         MOSUNNY   65  49  56 VRB5      29.83F
LA JUNTA       LGT RAIN  57  52  83 N13       29.84S
LAMAR          MOSUNNY   72  56  57 SE24G37   29.78F
SPRINGFIELD      N/A     69  54  58 S22       29.86F
$$


USA.gov is the U.S. government's official web portal to all federal, state and local government web resources and services.